Theta_e
293 292 291 291 291 290 290 289 289 288 287 286 285 284 283 282 282 281 281 279 278 277 277 276 276 276 275 275 275 275 275 276 277 277 277 276 276 275 274 274 275 275 276
293 291 291 290 290 289 289 289 288 288 286 285 284 283 282 282 282 280 279 278 277 276 275 275 274 274 274 273 273 273 273 274 274 274 274 274 274 274 274 274 274 274 275
293 291 290 289 289 288 288 288 287 286 285 283 282 282 281 281 280 279 278 277 276 275 274 274 274 273 273 273 273 273 273 273 274 274 274 274 274 274 274 274 274 274 275
292 290 289 288 288 287 286 286 286 285 284 282 282 281 281 280 279 278 277 276 275 274 274 274 274 273 273 273 273 273 273 274 274 274 274 274 274 275 275 275 275 275 275
290 289 288 287 286 285 284 285 285 284 282 282 281 280 279 278 277 277 276 275 274 274 274 274 274 274 274 274 275 275 275 275 275 276 276 276 276 276 276 276 276 276 276
290 288 287 285 284 283 283 284 283 282 281 280 279 278 278 277 277 276 275 275 274 274 274 274 273 273 273 274 275 276 276 277 277 277 277 277 277 276 276 276 276 276 277
289 287 285 283 281 281 282 281 279 278 278 277 277 277 276 276 276 276 276 275 275 274 274 273 273 273 274 274 275 276 276 276 277 277 277 277 277 276 276 276 276 276 276
287 285 282 281 280 279 279 278 277 277 277 276 276 276 275 275 275 276 276 275 274 274 274 273 273 274 275 275 275 276 276 276 276 276 276 276 276 276 276 276 276 276 276
285 283 281 281 279 278 277 277 276 275 275 275 275 275 274 274 275 275 275 274 274 274 274 274 274 275 274 275 276 276 275 275 275 274 274 275 276 277 278 278 278 278 277
285 283 281 280 279 277 277 276 275 275 275 274 274 274 274 274 274 273 274 274 274 274 274 275 275 274 274 275 276 275 274 273 273 274 274 272 272 272 274 276 277 278 278
284 282 280 279 278 277 276 275 274 274 273 273 273 273 273 274 272 274 275 275 275 275 275 274 274 273 275 276 275 274 272 274 274 270 269 271 271 271 272 274 277 277 277
282 280 278 277 276 275 275 273 273 273 272 272 271 271 272 272 273 274 275 275 275 275 274 273 272 274 273 273 273 272 273 272 269 269 269 270 271 271 272 272 273 274 276
279 277 276 275 275 274 273 272 272 272 271 271 271 271 272 272 272 273 274 274 275 274 273 273 272 271 271 270 270 270 270 268 269 269 269 270 271 271 271 271 272 273 274
277 275 274 273 272 272 272 271 271 271 271 271 272 272 272 271 271 272 273 273 273 272 272 271 269 269 268 268 267 268 268 268 268 269 269 269 270 271 271 271 272 273 273
276 274 273 272 271 271 271 271 271 271 272 273 273 272 271 271 271 273 273 273 272 272 270 269 268 266 266 266 267 267 267 267 268 269 269 268 271 271 271 271 272 272 272
275 273 272 271 271 270 270 271 272 272 273 274 273 273 271 272 273 274 274 273 271 270 268 266 265 265 265 265 266 266 266 267 267 268 268 269 271 271 271 271 270 271 271
275 273 272 270 271 271 271 272 272 274 274 274 273 272 271 273 273 273 273 270 269 267 266 264 263 264 263 264 265 265 266 266 266 267 268 269 271 272 271 270 270 270 270
275 272 272 271 270 270 271 272 273 273 273 273 273 273 272 273 273 272 270 266 266 265 265 264 263 263 263 263 263 264 264 265 266 267 267 269 271 271 270 270 269 269 269
274 272 271 271 271 271 271 272 272 272 271 270 271 271 271 272 272 270 265 266 265 264 265 264 263 262 263 263 263 263 263 264 265 266 268 268 271 271 270 269 269 269 269
274 272 271 271 270 270 270 270 269 269 268 268 268 266 268 270 267 264 263 264 263 264 264 264 264 264 263 262 262 263 263 264 265 266 267 270 270 270 269 269 269 269 269
272 271 271 270 270 270 270 269 268 267 266 266 265 266 266 267 264 263 263 263 263 264 264 263 264 264 263 263 263 263 262 263 265 266 266 270 269 269 269 269 268 269 269
271 270 270 269 269 268 268 267 267 266 265 264 264 266 266 264 263 263 262 262 262 262 263 263 264 265 264 263 263 262 262 263 265 266 267 270 269 269 269 268 268 269 268
269 268 268 267 267 266 266 265 265 264 263 263 264 265 263 262 262 262 262 261 261 262 263 263 264 266 265 265 265 265 264 264 264 266 269 269 268 268 268 268 268 268 268
267 266 266 265 265 265 264 264 263 262 262 262 262 262 261 261 261 262 261 261 261 262 262 263 264 265 265 265 266 267 267 268 268 268 269 268 268 267 267 267 268 268 268
265 265 265 264 264 263 262 262 261 261 261 261 261 261 261 261 261 261 260 261 261 262 262 262 264 265 265 266 266 267 268 269 269 270 269 268 267 267 267 267 267 267 267
264 263 263 263 262 262 261 260 260 260 260 260 261 261 261 260 261 260 260 261 261 262 262 262 263 264 265 266 267 267 268 268 270 270 269 267 267 266 266 267 267 267 267
Wind_Speed
45 46 44 46 47 47 46 46 44 38 36 35 32 28 24 19 15 14 14 13 14 14 14 14 14 14 17 19 19 19 20 22 20 61 37 37 37 39 37 36 38 41 44
43 40 42 40 43 43 44 43 41 39 37 35 32 29 25 21 17 15 13 13 13 13 14 13 15 14 18 19 18 20 21 22 28 35 49 44 41 39 40 41 41 41 42
40 43 38 41 42 43 43 43 41 39 37 33 31 28 24 19 16 14 14 13 14 14 13 14 16 17 19 18 18 21 21 24 27 33 48 44 46 41 43 40 41 44 41
40 39 39 40 43 43 43 42 41 39 39 35 31 26 22 19 16 15 13 12 11 12 12 14 16 17 21 22 21 24 26 27 29 33 40 45 39 41 39 38 40 38 40
36 36 38 39 41 43 43 42 41 40 39 36 31 26 22 19 17 15 14 13 12 11 11 13 15 20 21 24 26 26 27 27 27 30 33 35 37 35 31 33 36 42 41
36 36 36 39 41 43 43 45 44 42 40 35 31 28 24 21 18 14 12 12 10 10 10 13 17 20 23 23 25 29 31 34 33 32 33 30 40 38 39 37 36 33 20
34 32 36 38 38 40 42 43 41 41 40 36 31 27 24 20 16 15 16 13 12 11 11 14 16 19 23 26 29 31 33 36 39 42 42 41 43 42 41 42 38 39 39
30 31 34 37 36 35 39 39 39 41 41 39 35 30 26 21 16 15 14 13 13 12 12 14 18 22 23 26 30 31 33 35 37 38 40 45 43 46 44 45 47 47 51
28 32 36 38 36 36 36 36 36 35 35 36 34 30 26 21 19 17 15 14 13 11 12 15 19 21 25 26 30 33 36 38 33 36 42 46 47 49 49 45 39 30 19
31 34 36 37 38 39 39 37 36 36 32 31 29 28 25 22 18 17 15 15 12 13 14 15 14 21 24 25 30 32 30 36 38 36 37 33 40 42 42 42 41 28 23
22 29 33 34 33 32 32 32 34 33 30 29 29 26 24 20 18 16 16 13 11 11 11 13 15 20 23 28 28 27 29 38 37 34 35 33 34 34 33 34 35 38 33
25 27 27 29 29 33 34 29 32 32 30 25 25 23 21 20 17 17 14 12 8 7 10 12 18 20 26 25 25 24 29 32 31 31 32 32 33 33 33 33 38 42 42
23 23 25 26 26 31 33 30 28 27 27 24 23 19 18 19 18 14 13 9 5 7 8 11 16 18 19 20 20 24 25 25 26 28 30 31 33 38 39 37 38 38 41
25 22 26 29 26 27 26 28 28 27 24 23 21 20 20 19 19 17 12 9 5 6 6 12 11 12 13 15 18 19 22 24 26 29 30 34 37 36 34 33 35 32 32
25 32 33 28 30 29 30 32 31 27 29 28 24 25 24 19 23 15 11 9 6 2 6 6 13 13 14 17 19 21 23 24 26 29 31 34 34 35 33 33 31 32 27
22 21 22 23 32 34 33 26 24 28 23 21 22 28 22 19 15 13 10 7 4 1 2 8 10 12 13 17 20 22 24 25 28 31 33 33 34 33 32 33 33 28 23
25 25 24 23 25 28 25 26 22 28 27 26 23 25 21 20 15 13 10 8 6 3 7 8 10 14 16 17 19 21 26 29 33 31 34 35 35 36 34 31 28 27 23
28 28 31 29 29 28 29 27 28 28 24 24 25 26 22 20 18 14 12 10 7 4 7 8 11 14 17 18 20 22 26 30 32 32 35 36 36 36 33 29 27 24 22
30 27 26 27 29 29 29 26 25 24 25 26 26 24 22 20 18 14 8 9 6 4 7 7 10 14 18 22 23 24 26 29 33 33 34 35 39 37 34 32 30 31 29
27 26 28 27 26 28 29 25 22 20 23 26 23 24 27 24 22 17 11 9 5 4 5 8 11 15 18 22 25 26 27 30 31 32 35 35 41 39 34 33 31 27 25
23 26 26 26 26 27 26 26 25 24 21 21 19 28 26 26 22 17 12 9 4 4 3 7 11 15 19 23 26 28 29 30 30 32 35 39 42 39 38 35 34 31 29
25 27 27 27 27 27 26 26 24 23 22 22 26 22 20 21 18 15 11 6 2 0 3 8 12 15 20 24 27 30 30 32 32 34 33 42 41 41 39 37 34 32 29
26 27 25 24 25 28 27 26 26 25 24 25 26 22 21 19 16 12 8 4 3 1 3 7 10 13 19 23 27 30 33 35 35 39 34 41 41 42 42 38 35 32 28
23 24 25 24 26 25 25 24 24 25 27 28 26 21 19 16 13 10 6 5 4 3 5 7 9 13 18 22 26 29 33 37 40 32 38 38 39 44 41 40 37 39 33
22 22 22 24 24 24 24 23 24 24 26 28 24 19 16 13 10 8 6 3 4 6 6 8 9 12 17 21 25 28 31 33 39 32 40 37 40 42 42 40 41 39 35
22 22 22 22 23 23 22 22 22 24 24 24 21 17 13 12 9 7 4 4 6 8 10 11 11 11 15 20 23 27 31 33 36 39 39 35 39 41 43 41 44 39 37
Wind_Direction
214 212 210 213 216 218 221 220 217 212 205 202 202 203 208 211 216 228 242 248 252 261 264 271 281 293 296 288 279 266 260 257 267 285 287 293 292 296 300 298 292 290 288
214 211 212 213 216 216 217 218 212 207 206 204 203 203 207 209 217 226 231 241 252 263 275 281 289 301 290 281 271 262 257 258 261 276 290 294 295 298 296 293 291 288 286
210 211 207 210 213 214 212 210 206 206 207 204 205 206 209 211 215 223 232 239 254 264 275 284 298 302 284 276 269 267 264 260 259 267 281 288 291 294 293 288 288 288 285
207 202 201 203 207 208 208 205 203 206 205 205 206 209 210 211 216 221 234 243 253 267 278 289 297 283 276 278 277 271 269 266 264 262 270 281 283 289 288 288 290 286 285
199 198 200 201 202 205 204 202 203 205 206 207 204 204 208 210 214 220 225 234 241 259 275 289 282 278 277 278 277 278 277 273 270 269 270 275 282 286 283 289 286 290 284
196 196 193 192 194 197 199 199 201 202 204 204 204 204 203 209 212 209 214 229 244 250 266 284 283 281 279 280 283 284 284 285 279 277 282 279 280 279 281 280 282 285 285
194 189 186 185 188 191 193 196 194 195 200 202 202 202 204 207 200 197 206 223 234 245 269 278 282 280 281 281 286 290 288 285 282 283 283 281 285 284 284 280 277 277 277
184 184 182 183 185 184 187 189 189 194 195 197 199 201 201 201 192 199 207 222 241 253 275 282 280 283 285 295 295 291 289 289 286 279 273 277 278 281 276 271 270 269 272
181 184 185 184 180 180 183 185 185 185 188 194 198 197 197 192 188 192 201 220 237 259 283 287 281 282 296 300 299 301 301 298 295 293 292 287 285 286 287 286 281 270 267
191 189 186 183 182 183 185 182 182 185 188 191 191 199 198 193 192 197 199 214 245 273 285 277 277 291 299 301 305 306 304 305 303 305 309 299 296 292 289 279 275 270 271
187 185 185 185 185 184 179 179 178 174 176 180 185 192 195 193 194 192 200 216 234 268 270 291 290 297 302 307 307 308 305 307 312 316 306 301 299 295 294 291 270 256 259
185 184 181 182 179 179 176 176 174 171 169 168 173 182 184 187 184 190 200 215 233 264 303 292 295 304 308 310 309 309 310 310 309 308 305 299 301 302 298 293 291 283 280
186 176 176 179 179 179 172 171 166 172 167 167 174 171 171 176 179 186 200 208 236 274 286 293 304 310 313 314 316 315 315 310 306 304 303 299 302 303 300 295 292 283 279
178 173 174 173 172 176 177 178 174 180 174 169 173 161 160 169 181 180 185 187 212 257 266 305 321 323 316 316 314 319 311 308 305 297 303 301 301 305 302 300 295 290 289
183 174 176 179 174 175 183 185 177 184 182 173 175 164 159 174 184 173 176 188 186 226 294 334 3 346 339 332 323 320 314 310 307 303 308 300 304 306 302 300 292 295 285
180 180 191 186 178 178 174 176 188 181 176 175 177 170 168 169 172 171 166 155 158 139 48 21 337 344 330 317 321 317 315 313 312 310 310 299 309 309 307 307 299 290 286
196 179 179 185 182 178 179 174 161 167 161 158 154 145 156 163 175 164 153 139 152 158 63 20 337 344 315 309 311 313 314 315 314 309 311 302 311 314 312 307 300 294 288
201 182 177 182 182 177 174 174 166 160 151 153 154 152 159 163 168 162 152 154 139 105 58 0 346 338 322 312 312 312 314 314 314 311 314 307 315 317 313 308 302 296 291
194 183 182 182 179 170 168 167 165 160 151 144 148 153 162 168 164 155 150 164 132 95 50 358 348 330 331 334 327 319 316 309 310 310 315 310 320 319 313 309 304 301 294
189 180 173 173 168 166 161 156 155 155 148 150 154 154 166 165 162 170 165 147 166 93 38 353 342 341 338 332 333 331 323 315 316 315 317 318 324 320 315 312 310 305 298
171 166 166 161 162 167 160 152 151 148 148 153 153 167 172 174 170 168 160 167 167 91 30 334 341 348 344 337 340 337 325 315 314 315 316 327 326 322 320 316 313 306 302
157 157 157 156 153 152 145 143 142 139 142 144 152 161 167 168 164 163 169 175 142 280 354 338 345 357 349 345 342 337 327 315 317 318 317 332 328 326 324 322 319 316 311
147 149 148 148 146 136 130 135 136 139 141 147 156 151 161 163 163 166 175 181 235 283 336 332 346 357 356 352 346 344 333 320 319 320 327 334 330 330 329 326 324 323 319
137 140 137 135 133 129 133 132 135 139 144 152 163 164 161 170 158 165 191 221 268 319 326 331 343 359 352 348 348 347 343 339 336 324 342 337 332 333 332 331 330 329 325
125 127 128 127 130 129 128 130 131 137 146 156 159 162 167 160 161 175 209 244 300 317 338 339 352 357 345 343 346 347 346 344 344 342 347 341 339 339 337 335 336 335 333
113 112 115 120 119 123 125 126 129 139 148 156 158 161 162 168 172 193 216 272 305 323 332 346 360 350 338 342 348 349 347 347 341 351 347 345 345 344 343 341 341 343 341